Weather History for KJYL - December, 2012

Change the Weather History Date:

Tuesday, December 25, 2012

  Actual Average (KSAV) Record (KSAV)
Temperature  
Mean Temperature 54 °F 50 °F  
Max Temperature 57 °F 61 °F 80 °F (1984)
Min Temperature 51 °F 39 °F 10 °F (1983)
Degree Days  
Heating Degree Days 11 15  
Month to date heating degree days 329  
Since 1 July heating degree days 596  
Cooling Degree Days 0 0  
Month to date cooling degree days 3  
Year to date cooling degree days 2452  
Growing Degree Days 4 (Base 50)    
Moisture  
Dew Point 55 °F    
Average Humidity 100    
Maximum Humidity 100    
Minimum Humidity 100    
Precipitation  
Precipitation 0.00 in 0.10 in 1.92 in (1873)
Month to date precipitation 2.35  
Year to date precipitation 47.36  
Sea Level Pressure  
Sea Level Pressure 29.99 in    
Wind  
Wind Speed 2 mph (East)    
Max Wind Speed 8 mph    
Max Gust Speed -    
Visibility 5 miles    
Events Fog , Rain    
T = Trace of Precipitation, MM = Missing Value Source: NWS Daily Summary

Daily Weather History Graph

Daily Weather History Graph

Search for Another Location

Airport or City:

Trip Planner

Search our weather history database for the weather conditions in past years. The results will help you decide how hot, cold, wet, or windy it might be!

Date:

Astronomy

Dec. 25, 2012 Rise Set
Actual Time 7:26 AM EST 5:27 PM EST
Civil Twilight 6:59 AM EST 5:54 PM EST
Nautical Twilight 6:28 AM EST 6:25 PM EST
Astronomical Twilight 5:58 AM EST 6:55 PM EST
Moon 3:32 PM EST (12/25) 5:00 AM EST (12/25)
Length of Visible Light 10h 55m
Length of Day
10h 00m
Waxing Gibbous, 93% of the Moon is Illuminated
Dec 25
Waxing Gibbous
Dec 28
Full
Jan 4
Last Quarter
Jan 11
New
Jan 18
First Quarter

Hourly Weather History & Observations

Time (EST) Temp. Dew Point Humidity Pressure Visibility Wind Dir Wind Speed Gust Speed Precip Events Conditions
12:15 AM 51.1 °F 51.1 °F 100% 29.98 in 10.0 mi Calm Calm - N/A   Overcast
12:35 AM 51.8 °F 51.8 °F 100% 29.97 in 10.0 mi Calm Calm - N/A   Overcast
12:55 AM 52.2 °F 52.2 °F 100% 29.97 in 2.0 mi Calm Calm - N/A   Overcast
1:15 AM 52.7 °F 52.7 °F 100% 29.97 in 0.2 mi Calm Calm - N/A Fog Fog
1:35 AM 52.9 °F 52.9 °F 100% 29.97 in 0.2 mi Calm Calm - N/A Fog Fog
1:55 AM 52.9 °F 52.9 °F 100% 29.97 in 0.2 mi Calm Calm - N/A Fog Fog
2:15 AM 53.6 °F 53.6 °F 100% 29.97 in 0.2 mi Calm Calm - N/A Fog Fog
2:35 AM 53.8 °F 53.8 °F 100% 29.97 in 0.2 mi Calm Calm - N/A Fog Fog
2:55 AM 53.8 °F 53.8 °F 100% 29.98 in 0.2 mi Calm Calm - N/A Fog Fog
3:15 AM 54.0 °F 54.0 °F 100% 29.98 in 0.2 mi Calm Calm - N/A Fog Fog
3:35 AM 54.0 °F 54.0 °F 100% 29.99 in 0.5 mi Calm Calm - N/A Fog Fog
3:55 AM 54.0 °F 54.0 °F 100% 29.99 in 1.0 mi Calm Calm - N/A   Overcast
4:15 AM 54.0 °F 54.0 °F 100% 29.99 in 2.0 mi Calm Calm - N/A   Overcast
4:35 AM 54.0 °F 54.0 °F 100% 29.99 in 2.5 mi Calm Calm - N/A   Overcast
4:55 AM 54.0 °F 54.0 °F 100% 29.99 in 3.0 mi Calm Calm - N/A   Overcast
5:15 AM 54.3 °F 54.3 °F 100% 29.99 in 4.0 mi Calm Calm - N/A   Overcast
5:35 AM 54.5 °F 54.5 °F 100% 30.01 in 4.0 mi Calm Calm - N/A   Overcast
5:55 AM 54.5 °F 54.5 °F 100% 30.01 in 4.0 mi Calm Calm - N/A   Overcast
6:15 AM 54.5 °F 54.5 °F 100% 30.01 in 2.5 mi Calm Calm - N/A   Overcast
6:55 AM 54.9 °F 54.9 °F 100% 30.03 in 3.0 mi Calm Calm - N/A   Overcast
7:15 AM 54.9 °F 54.9 °F 100% 30.03 in 2.5 mi Calm Calm - N/A   Overcast
7:35 AM 54.9 °F 54.9 °F 100% 30.04 in 4.0 mi East 3.5 mph - N/A   Overcast
7:55 AM 55.0 °F 55.0 °F 100% 30.04 in 4.0 mi East 3.5 mph - N/A   Overcast
8:15 AM 55.4 °F 55.4 °F 100% 30.04 in 4.0 mi Calm Calm - N/A   Overcast
8:35 AM 55.4 °F 55.4 °F 100% 30.04 in 4.0 mi Calm Calm - N/A   Overcast
8:55 AM 55.8 °F 55.8 °F 100% 30.05 in 3.0 mi Calm Calm - N/A   Overcast
9:15 AM 56.1 °F 56.1 °F 100% 30.06 in 2.5 mi East 3.5 mph - N/A   Overcast
9:35 AM 56.5 °F 56.5 °F 100% 30.06 in 3.0 mi ENE 4.6 mph - N/A   Overcast
9:55 AM 56.7 °F 56.7 °F 100% 30.06 in 5.0 mi ENE 4.6 mph - N/A   Overcast
10:15 AM 56.8 °F 56.8 °F 100% 30.06 in 7.0 mi East 8.1 mph - N/A   Overcast
10:35 AM 56.8 °F 56.8 °F 100% 30.05 in 7.0 mi East 5.8 mph - N/A   Overcast
10:55 AM 57.2 °F 57.2 °F 100% 30.05 in 7.0 mi East 5.8 mph - N/A   Overcast
11:15 AM 57.2 °F 57.2 °F 100% 30.06 in 10.0 mi East 4.6 mph - N/A   Overcast
11:35 AM 57.4 °F 57.4 °F 100% 30.04 in 10.0 mi East 4.6 mph - N/A   Overcast
11:55 AM 57.6 °F 57.6 °F 100% 30.03 in 10.0 mi East 4.6 mph - N/A   Overcast
12:15 PM 57.2 °F 57.2 °F 100% 30.03 in 7.0 mi East 3.5 mph - N/A   Overcast
12:35 PM 57.4 °F 57.4 °F 100% 30.03 in 7.0 mi East 5.8 mph - N/A   Overcast
12:55 PM 57.2 °F 57.2 °F 100% 30.02 in 7.0 mi East 6.9 mph - N/A   Overcast
1:15 PM 57.2 °F 57.2 °F 100% 30.02 in 7.0 mi East 5.8 mph - N/A   Overcast
1:35 PM 56.8 °F 56.8 °F 100% 30.01 in 7.0 mi ENE 6.9 mph - N/A   Overcast
1:55 PM 56.8 °F 56.8 °F 100% 30.00 in 5.0 mi East 5.8 mph - N/A   Overcast
2:15 PM 56.7 °F 56.7 °F 100% 29.99 in 5.0 mi ENE 6.9 mph - N/A   Overcast
2:35 PM 56.3 °F 56.3 °F 100% 30.00 in 5.0 mi ENE 4.6 mph - N/A Rain Light Rain
2:55 PM 56.3 °F 56.3 °F 100% 29.99 in 2.5 mi ENE 5.8 mph - N/A Rain Rain
3:15 PM 55.6 °F 55.6 °F 100% 30.00 in 4.0 mi ENE 6.9 mph - N/A Rain Rain
3:35 PM 55.4 °F 55.4 °F 100% 29.99 in 3.0 mi ENE 5.8 mph - N/A Rain Rain
3:55 PM 55.4 °F 55.4 °F 100% 29.99 in 2.5 mi ENE 3.5 mph - N/A Rain Rain
4:15 PM 54.9 °F 54.9 °F 100% 29.97 in 3.0 mi East 5.8 mph - N/A Rain Heavy Rain
4:35 PM 54.7 °F 54.7 °F 100% 29.97 in 5.0 mi ESE 3.5 mph - N/A   Drizzle
4:55 PM 54.7 °F 54.7 °F 100% 29.96 in 10.0 mi ESE 8.1 mph - N/A   Overcast
5:15 PM 54.7 °F 54.7 °F 100% 29.95 in 7.0 mi East 8.1 mph - N/A Rain Rain
5:55 PM 54.7 °F 54.7 °F 100% 29.97 in 7.0 mi ESE 5.8 mph - N/A Rain Light Rain
6:15 PM 54.7 °F 54.7 °F 100% 29.99 in 7.0 mi East 3.5 mph - N/A Rain Rain
6:35 PM 54.7 °F 54.7 °F 100% 30.00 in 10.0 mi Calm Calm - N/A Rain Light Rain
6:55 PM 54.9 °F 54.9 °F 100% 30.02 in 5.0 mi Calm Calm - N/A Rain Rain
7:15 PM 54.7 °F 54.7 °F 100% 30.01 in 7.0 mi Calm Calm - N/A Rain Rain
7:35 PM 54.7 °F 54.7 °F 100% 30.01 in 7.0 mi NE 3.5 mph - N/A Rain Rain
7:55 PM 54.5 °F 54.5 °F 100% 29.98 in 7.0 mi ENE 6.9 mph - N/A Rain Rain
8:15 PM 54.5 °F 54.5 °F 100% 29.95 in 10.0 mi East 6.9 mph - N/A Rain Light Rain
8:35 PM 54.7 °F 54.7 °F 100% 29.95 in 10.0 mi East 6.9 mph - N/A   Overcast
8:55 PM 54.7 °F 54.7 °F 100% 29.95 in 10.0 mi East 3.5 mph - N/A   Overcast
9:15 PM 55.0 °F 55.0 °F 100% 29.96 in 7.0 mi Calm Calm - N/A   Overcast
9:35 PM 55.4 °F 55.4 °F 100% 29.95 in 5.0 mi ESE 4.6 mph - N/A   Overcast
9:55 PM 55.6 °F 55.6 °F 100% 29.95 in 4.0 mi Calm Calm - N/A   Overcast
10:15 PM 55.8 °F 55.8 °F 100% 29.94 in 2.5 mi East 3.5 mph - N/A   Overcast
10:35 PM 55.9 °F 55.9 °F 100% 29.94 in 1.8 mi East 3.5 mph - N/A   Overcast
11:15 PM 56.5 °F 56.5 °F 100% 29.91 in 1.0 mi ESE 6.9 mph - N/A   Overcast
11:35 PM 56.7 °F 56.7 °F 100% 29.90 in 0.8 mi ESE 4.6 mph - N/A   Overcast
11:55 PM 57.0 °F 57.0 °F 100% 29.91 in 1.2 mi ESE 3.5 mph - N/A   Overcast